owner,sensor,date,latitude,longitude,vertical_datum,sea_water_temperature,qcFlag
BP,ioos:station:wmo:42858:1,2023-11-01T00:07:00Z,28.1843,-88.4742,28.8,25.7,11111222
BP,ioos:station:wmo:42858:1,2023-11-01T00:17:00Z,28.1843,-88.4742,28.7,25.7,11111222
BP,ioos:station:wmo:42858:1,2023-11-01T00:27:00Z,28.1843,-88.4742,28.7,25.6,11111222
BP,ioos:station:wmo:42858:1,2023-11-01T00:37:00Z,28.1843,-88.4742,28.8,25.7,11111222
BP,ioos:station:wmo:42858:1,2023-11-01T00:47:00Z,28.1843,-88.4742,28.8,25.7,11111222
BP,ioos:station:wmo:42858:1,2023-11-01T00:57:00Z,28.1843,-88.4742,28.8,25.7,11111222
BP,ioos:station:wmo:42858:1,2023-11-01T01:07:00Z,28.1843,-88.4742,28.7,25.7,11111222
BP,ioos:station:wmo:42858:1,2023-11-01T01:17:00Z,28.1843,-88.4742,28.8,25.6,11111222
BP,ioos:station:wmo:42858:1,2023-11-01T01:27:00Z,28.1843,-88.4742,28.8,25.6,11111222
BP,ioos:station:wmo:42858:1,2023-11-01T01:37:00Z,28.1843,-88.4742,28.8,25.6,11111222
BP,ioos:station:wmo:42858:1,2023-11-01T01:47:00Z,28.1843,-88.4742,28.8,25.6,11111222
BP,ioos:station:wmo:42858:1,2023-11-01T01:57:00Z,28.1843,-88.4742,28.8,25.6,11111222
BP,ioos:station:wmo:42858:1,2023-11-01T02:07:00Z,28.1843,-88.4742,28.8,25.6,11111222
BP,ioos:station:wmo:42858:1,2023-11-01T02:17:00Z,28.1843,-88.4742,28.8,25.6,11111222
BP,ioos:station:wmo:42858:1,2023-11-01T02:27:00Z,28.1843,-88.4742,28.8,25.6,11111222
BP,ioos:station:wmo:42858:1,2023-11-01T02:37:00Z,28.1843,-88.4742,28.8,25.6,11111222
BP,ioos:station:wmo:42858:1,2023-11-01T02:47:00Z,28.1843,-88.4742,28.8,25.6,11111222
BP,ioos:station:wmo:42858:1,2023-11-01T02:57:00Z,28.1843,-88.4742,28.8,25.6,11111222
BP,ioos:station:wmo:42858:1,2023-11-01T03:07:00Z,28.1843,-88.4742,28.8,25.6,11111222
BP,ioos:station:wmo:42858:1,2023-11-01T03:17:00Z,28.1843,-88.4742,28.8,25.6,11111222
BP,ioos:station:wmo:42858:1,2023-11-01T03:27:00Z,28.1843,-88.4742,28.8,25.6,11111222
BP,ioos:station:wmo:42858:1,2023-11-01T03:37:00Z,28.1843,-88.4742,28.7,25.6,11111222
BP,ioos:station:wmo:42858:1,2023-11-01T03:47:00Z,28.1843,-88.4742,28.8,25.6,11111222
BP,ioos:station:wmo:42858:1,2023-11-01T03:57:00Z,28.1843,-88.4742,28.7,25.6,11111222
BP,ioos:station:wmo:42858:1,2023-11-01T04:07:00Z,28.1843,-88.4742,28.7,25.6,11111222
BP,ioos:station:wmo:42858:1,2023-11-01T04:17:00Z,28.1843,-88.4742,28.7,25.6,11111222
BP,ioos:station:wmo:42858:1,2023-11-01T04:27:00Z,28.1843,-88.4742,28.7,25.5,11111222
BP,ioos:station:wmo:42858:1,2023-11-01T04:37:00Z,28.1843,-88.4742,28.6,25.6,11111222
BP,ioos:station:wmo:42858:1,2023-11-01T04:47:00Z,28.1843,-88.4742,28.6,25.5,11111222
BP,ioos:station:wmo:42858:1,2023-11-01T04:57:00Z,28.1843,-88.4742,28.7,25.4,11111222
BP,ioos:station:wmo:42858:1,2023-11-01T05:07:00Z,28.1843,-88.4742,28.5,25.5,11111222
BP,ioos:station:wmo:42858:1,2023-11-01T05:17:00Z,28.1843,-88.4742,28.6,25.5,11111222
BP,ioos:station:wmo:42858:1,2023-11-01T05:27:00Z,28.1843,-88.4742,28.6,25.5,11111222
BP,ioos:station:wmo:42858:1,2023-11-01T05:37:00Z,28.1843,-88.4742,28.5,25.6,11111222
BP,ioos:station:wmo:42858:1,2023-11-01T05:47:00Z,28.1843,-88.4742,28.5,25.6,11111222
BP,ioos:station:wmo:42858:1,2023-11-01T05:57:00Z,28.1843,-88.4742,28.4,25.6,11111222
BP,ioos:station:wmo:42858:1,2023-11-01T06:07:00Z,28.1843,-88.4742,28.4,25.6,11111222
BP,ioos:station:wmo:42858:1,2023-11-01T06:17:00Z,28.1843,-88.4742,28.5,25.6,11111222
BP,ioos:station:wmo:42858:1,2023-11-01T06:27:00Z,28.1843,-88.4742,28.5,25.6,11111222
BP,ioos:station:wmo:42858:1,2023-11-01T06:37:00Z,28.1843,-88.4742,28.5,25.6,11111222
BP,ioos:station:wmo:42858:1,2023-11-01T06:47:00Z,28.1843,-88.4742,28.4,25.6,11111222
BP,ioos:station:wmo:42858:1,2023-11-01T06:57:00Z,28.1843,-88.4742,28.4,25.6,11111222
BP,ioos:station:wmo:42858:1,2023-11-01T07:07:00Z,28.1843,-88.4742,28.4,25.6,11111222
BP,ioos:station:wmo:42858:1,2023-11-01T07:17:00Z,28.1843,-88.4742,28.4,25.6,11111222
BP,ioos:station:wmo:42858:1,2023-11-01T07:27:00Z,28.1843,-88.4742,28.4,25.6,11111222
BP,ioos:station:wmo:42858:1,2023-11-01T07:37:00Z,28.1843,-88.4742,28.4,25.6,11111222
BP,ioos:station:wmo:42858:1,2023-11-01T07:47:00Z,28.1843,-88.4742,28.4,25.6,11111222
BP,ioos:station:wmo:42858:1,2023-11-01T07:57:00Z,28.1843,-88.4742,28.4,25.6,11111222
BP,ioos:station:wmo:42858:1,2023-11-01T08:07:00Z,28.1843,-88.4742,28.4,25.6,11111222
BP,ioos:station:wmo:42858:1,2023-11-01T08:17:00Z,28.1843,-88.4742,28.3,25.5,11111222
BP,ioos:station:wmo:42858:1,2023-11-01T08:27:00Z,28.1843,-88.4742,28.4,25.5,11111222
BP,ioos:station:wmo:42858:1,2023-11-01T08:37:00Z,28.1843,-88.4742,28.3,25.5,11111222
BP,ioos:station:wmo:42858:1,2023-11-01T08:47:00Z,28.1843,-88.4742,28.2,25.5,11111222
BP,ioos:station:wmo:42858:1,2023-11-01T08:57:00Z,28.1843,-88.4742,28.3,25.5,11111222
BP,ioos:station:wmo:42858:1,2023-11-01T09:07:00Z,28.1843,-88.4742,28.3,25.5,11111222
BP,ioos:station:wmo:42858:1,2023-11-01T09:17:00Z,28.1843,-88.4742,28.3,25.5,11111222
BP,ioos:station:wmo:42858:1,2023-11-01T09:27:00Z,28.1843,-88.4742,28.5,25.5,11111222
BP,ioos:station:wmo:42858:1,2023-11-01T09:37:00Z,28.1843,-88.4742,28.5,25.5,11111222
BP,ioos:station:wmo:42858:1,2023-11-01T09:47:00Z,28.1843,-88.4742,28.5,25.5,11111222
BP,ioos:station:wmo:42858:1,2023-11-01T09:57:00Z,28.1843,-88.4742,28.5,25.5,11111222
BP,ioos:station:wmo:42858:1,2023-11-01T10:07:00Z,28.1843,-88.4742,28.5,25.5,11111222
BP,ioos:station:wmo:42858:1,2023-11-01T10:17:00Z,28.1843,-88.4742,28.6,25.5,11111222
BP,ioos:station:wmo:42858:1,2023-11-01T10:27:00Z,28.1843,-88.4742,28.5,25.5,11111222
BP,ioos:station:wmo:42858:1,2023-11-01T10:37:00Z,28.1843,-88.4742,28.5,25.5,11111222
BP,ioos:station:wmo:42858:1,2023-11-01T10:47:00Z,28.1843,-88.4742,28.5,25.5,11111222
BP,ioos:station:wmo:42858:1,2023-11-01T10:57:00Z,28.1843,-88.4742,28.5,25.4,11111222
BP,ioos:station:wmo:42858:1,2023-11-01T11:07:00Z,28.1843,-88.4742,28.5,25.4,11111222
BP,ioos:station:wmo:42858:1,2023-11-01T11:17:00Z,28.1843,-88.4742,28.6,25.4,11111222
BP,ioos:station:wmo:42858:1,2023-11-01T11:27:00Z,28.1843,-88.4742,28.6,25.4,11111222
BP,ioos:station:wmo:42858:1,2023-11-01T11:37:00Z,28.1843,-88.4742,28.5,25.4,11111222
BP,ioos:station:wmo:42858:1,2023-11-01T11:47:00Z,28.1843,-88.4742,28.5,25.4,11111222
BP,ioos:station:wmo:42858:1,2023-11-01T11:57:00Z,28.1843,-88.4742,28.6,25.4,11111222
BP,ioos:station:wmo:42858:1,2023-11-01T12:07:00Z,28.1843,-88.4742,28.5,25.4,11111222
BP,ioos:station:wmo:42858:1,2023-11-01T12:17:00Z,28.1843,-88.4742,28.5,25.4,11111222
BP,ioos:station:wmo:42858:1,2023-11-01T12:27:00Z,28.1843,-88.4742,28.6,25.4,11111222
BP,ioos:station:wmo:42858:1,2023-11-01T12:37:00Z,28.1843,-88.4742,28.6,25.4,11111222
BP,ioos:station:wmo:42858:1,2023-11-01T12:47:00Z,28.1843,-88.4742,28.6,25.4,11111222
BP,ioos:station:wmo:42858:1,2023-11-01T12:57:00Z,28.1843,-88.4742,28.6,25.4,11111222
BP,ioos:station:wmo:42858:1,2023-11-01T13:07:00Z,28.1843,-88.4742,28.6,25.4,11111222
BP,ioos:station:wmo:42858:1,2023-11-01T13:17:00Z,28.1843,-88.4742,28.6,25.4,11111222
BP,ioos:station:wmo:42858:1,2023-11-01T13:27:00Z,28.1843,-88.4742,28.6,25.5,11111222
BP,ioos:station:wmo:42858:1,2023-11-01T13:37:00Z,28.1843,-88.4742,28.6,25.5,11111222
BP,ioos:station:wmo:42858:1,2023-11-01T13:47:00Z,28.1843,-88.4742,28.6,25.5,11111222
BP,ioos:station:wmo:42858:1,2023-11-01T13:57:00Z,28.1843,-88.4742,28.6,25.5,11111222
BP,ioos:station:wmo:42858:1,2023-11-01T14:08:00Z,28.1843,-88.4742,28.6,25.5,11111222
BP,ioos:station:wmo:42858:1,2023-11-01T14:18:00Z,28.1843,-88.4742,28.6,25.5,11111222
BP,ioos:station:wmo:42858:1,2023-11-01T14:28:00Z,28.1843,-88.4742,28.6,25.5,11111222
BP,ioos:station:wmo:42858:1,2023-11-01T14:38:00Z,28.1843,-88.4742,28.7,25.5,11111222
BP,ioos:station:wmo:42858:1,2023-11-01T14:48:00Z,28.1843,-88.4742,28.6,25.5,11111222
BP,ioos:station:wmo:42858:1,2023-11-01T14:58:00Z,28.1843,-88.4742,28.6,25.5,11111222
BP,ioos:station:wmo:42858:1,2023-11-01T15:08:00Z,28.1843,-88.4742,28.6,25.5,11111222
BP,ioos:station:wmo:42858:1,2023-11-01T15:18:00Z,28.1843,-88.4742,28.6,25.5,11111222
BP,ioos:station:wmo:42858:1,2023-11-01T15:28:00Z,28.1843,-88.4742,28.6,25.5,11111222
BP,ioos:station:wmo:42858:1,2023-11-01T15:38:00Z,28.1843,-88.4742,28.6,25.5,11111222
BP,ioos:station:wmo:42858:1,2023-11-01T15:48:00Z,28.1843,-88.4742,28.6,25.4,11111222
BP,ioos:station:wmo:42858:1,2023-11-01T15:58:00Z,28.1843,-88.4742,28.6,25.4,11111222
BP,ioos:station:wmo:42858:1,2023-11-01T16:08:00Z,28.1843,-88.4742,28.6,25.4,11111222
BP,ioos:station:wmo:42858:1,2023-11-01T16:18:00Z,28.1843,-88.4742,28.6,25.4,11111222
BP,ioos:station:wmo:42858:1,2023-11-01T16:28:00Z,28.1843,-88.4742,28.6,25.4,11111222
BP,ioos:station:wmo:42858:1,2023-11-01T16:38:00Z,28.1843,-88.4742,28.6,25.4,11111222
BP,ioos:station:wmo:42858:1,2023-11-01T16:48:00Z,28.1843,-88.4742,28.7,25.4,11111222
BP,ioos:station:wmo:42858:1,2023-11-01T16:58:00Z,28.1843,-88.4742,28.7,25.4,11111222
BP,ioos:station:wmo:42858:1,2023-11-01T17:08:00Z,28.1843,-88.4742,28.7,25.4,11111222
BP,ioos:station:wmo:42858:1,2023-11-01T17:18:00Z,28.1843,-88.4742,28.7,25.4,11111222
BP,ioos:station:wmo:42858:1,2023-11-01T17:28:00Z,28.1843,-88.4742,28.7,25.4,11111222
BP,ioos:station:wmo:42858:1,2023-11-01T17:38:00Z,28.1843,-88.4742,28.7,25.5,11111222
BP,ioos:station:wmo:42858:1,2023-11-01T17:48:00Z,28.1843,-88.4742,28.7,25.5,11111222
BP,ioos:station:wmo:42858:1,2023-11-01T17:58:00Z,28.1843,-88.4742,28.7,25.4,11111222
BP,ioos:station:wmo:42858:1,2023-11-01T18:08:00Z,28.1843,-88.4742,28.7,25.5,11111222
BP,ioos:station:wmo:42858:1,2023-11-01T18:18:00Z,28.1843,-88.4742,28.7,25.4,11111222
BP,ioos:station:wmo:42858:1,2023-11-01T18:28:00Z,28.1843,-88.4742,28.7,25.5,11111222
BP,ioos:station:wmo:42858:1,2023-11-01T18:38:00Z,28.1843,-88.4742,28.8,25.5,11111222
BP,ioos:station:wmo:42858:1,2023-11-01T18:48:00Z,28.1843,-88.4742,28.8,25.5,11111222
BP,ioos:station:wmo:42858:1,2023-11-01T18:58:00Z,28.1843,-88.4742,28.8,25.5,11111222
BP,ioos:station:wmo:42858:1,2023-11-01T19:08:00Z,28.1843,-88.4742,28.8,25.5,11111222
BP,ioos:station:wmo:42858:1,2023-11-01T19:18:00Z,28.1843,-88.4742,28.8,25.5,11111222
BP,ioos:station:wmo:42858:1,2023-11-01T19:28:00Z,28.1843,-88.4742,28.8,25.5,11111222
BP,ioos:station:wmo:42858:1,2023-11-01T19:38:00Z,28.1843,-88.4742,28.8,25.4,11111222
BP,ioos:station:wmo:42858:1,2023-11-01T19:48:00Z,28.1843,-88.4742,28.8,25.4,11111222
BP,ioos:station:wmo:42858:1,2023-11-01T19:58:00Z,28.1843,-88.4742,28.8,25.4,11111222
BP,ioos:station:wmo:42858:1,2023-11-01T20:08:00Z,28.1843,-88.4742,28.8,25.4,11111222
BP,ioos:station:wmo:42858:1,2023-11-01T20:18:00Z,28.1843,-88.4742,28.7,25.4,11111222
BP,ioos:station:wmo:42858:1,2023-11-01T20:28:00Z,28.1843,-88.4742,28.7,25.4,11111222
BP,ioos:station:wmo:42858:1,2023-11-01T20:38:00Z,28.1843,-88.4742,28.7,25.4,11111222
BP,ioos:station:wmo:42858:1,2023-11-01T20:48:00Z,28.1843,-88.4742,28.7,25.4,11111222
BP,ioos:station:wmo:42858:1,2023-11-01T20:58:00Z,28.1843,-88.4742,28.7,25.4,11111222
BP,ioos:station:wmo:42858:1,2023-11-01T21:08:00Z,28.1843,-88.4742,28.7,25.4,11111222
BP,ioos:station:wmo:42858:1,2023-11-01T21:18:00Z,28.1843,-88.4742,28.7,25.4,11111222
BP,ioos:station:wmo:42858:1,2023-11-01T21:38:00Z,28.1843,-88.4742,28.7,25.4,11111222
BP,ioos:station:wmo:42858:1,2023-11-01T21:48:00Z,28.1843,-88.4742,28.7,25.4,11111222
BP,ioos:station:wmo:42858:1,2023-11-01T21:58:00Z,28.1843,-88.4742,28.7,25.4,11111222
BP,ioos:station:wmo:42858:1,2023-11-01T22:08:00Z,28.1843,-88.4742,28.7,25.4,11111222
BP,ioos:station:wmo:42858:1,2023-11-01T22:18:00Z,28.1843,-88.4742,28.7,25.4,11111222
BP,ioos:station:wmo:42858:1,2023-11-01T22:28:00Z,28.1843,-88.4742,28.7,25.5,11111222
BP,ioos:station:wmo:42858:1,2023-11-01T22:38:00Z,28.1843,-88.4742,28.7,25.5,11111222
BP,ioos:station:wmo:42858:1,2023-11-01T22:48:00Z,28.1843,-88.4742,28.7,25.6,11111222
BP,ioos:station:wmo:42858:1,2023-11-01T22:58:00Z,28.1843,-88.4742,28.7,25.6,11111222
BP,ioos:station:wmo:42858:1,2023-11-01T23:08:00Z,28.1843,-88.4742,28.7,25.6,11111222
BP,ioos:station:wmo:42858:1,2023-11-01T23:18:00Z,28.1843,-88.4742,28.6,25.6,11111222
BP,ioos:station:wmo:42858:1,2023-11-01T23:28:00Z,28.1843,-88.4742,28.6,25.7,11111222
BP,ioos:station:wmo:42858:1,2023-11-01T23:38:00Z,28.1843,-88.4742,28.6,25.7,11111222
BP,ioos:station:wmo:42858:1,2023-11-01T23:48:00Z,28.1843,-88.4742,28.7,25.7,11111222
BP,ioos:station:wmo:42858:1,2023-11-01T23:58:00Z,28.1843,-88.4742,28.7,25.7,11111222
BP,ioos:station:wmo:42858:1,2023-11-02T00:08:00Z,28.1843,-88.4742,28.7,25.8,11111222
BP,ioos:station:wmo:42858:1,2023-11-02T00:18:00Z,28.1843,-88.4742,28.7,25.8,11111222
BP,ioos:station:wmo:42858:1,2023-11-02T00:28:00Z,28.1843,-88.4742,28.7,25.9,11111222
BP,ioos:station:wmo:42858:1,2023-11-02T00:38:00Z,28.1843,-88.4742,28.7,25.9,11111222
BP,ioos:station:wmo:42858:1,2023-11-02T00:48:00Z,28.1843,-88.4742,28.7,26.0,11111222
BP,ioos:station:wmo:42858:1,2023-11-02T00:58:00Z,28.1843,-88.4742,28.7,26.1,11111222
BP,ioos:station:wmo:42858:1,2023-11-02T01:08:00Z,28.1843,-88.4742,28.7,26.1,11111222
BP,ioos:station:wmo:42858:1,2023-11-02T01:18:00Z,28.1843,-88.4742,28.7,26.1,11111222
BP,ioos:station:wmo:42858:1,2023-11-02T01:28:00Z,28.1843,-88.4742,28.7,26.1,11111222
BP,ioos:station:wmo:42858:1,2023-11-02T01:38:00Z,28.1843,-88.4742,28.7,26.1,11111222
BP,ioos:station:wmo:42858:1,2023-11-02T01:48:00Z,28.1843,-88.4742,28.7,26.1,11111222
BP,ioos:station:wmo:42858:1,2023-11-02T01:58:00Z,28.1843,-88.4742,28.7,26.1,11111222
BP,ioos:station:wmo:42858:1,2023-11-02T02:08:00Z,28.1843,-88.4742,28.7,26.1,11111222
BP,ioos:station:wmo:42858:1,2023-11-02T02:18:00Z,28.1843,-88.4742,28.7,26.1,11111222
BP,ioos:station:wmo:42858:1,2023-11-02T02:28:00Z,28.1843,-88.4742,28.7,26.1,11111222
BP,ioos:station:wmo:42858:1,2023-11-02T02:38:00Z,28.1843,-88.4742,28.8,26.1,11111222
BP,ioos:station:wmo:42858:1,2023-11-02T02:48:00Z,28.1843,-88.4742,28.9,26.1,11111222
BP,ioos:station:wmo:42858:1,2023-11-02T02:58:00Z,28.1843,-88.4742,28.9,26.1,11111222
BP,ioos:station:wmo:42858:1,2023-11-02T03:08:00Z,28.1843,-88.4742,28.8,26.1,11111222
BP,ioos:station:wmo:42858:1,2023-11-02T03:18:00Z,28.1843,-88.4742,28.8,26.1,11111222
BP,ioos:station:wmo:42858:1,2023-11-02T03:28:00Z,28.1843,-88.4742,28.8,26.1,11111222
BP,ioos:station:wmo:42858:1,2023-11-02T03:38:00Z,28.1843,-88.4742,28.8,26.1,11111222
BP,ioos:station:wmo:42858:1,2023-11-02T03:48:00Z,28.1843,-88.4742,28.8,26.1,11111222
BP,ioos:station:wmo:42858:1,2023-11-02T03:58:00Z,28.1843,-88.4742,28.8,26.1,11111222
BP,ioos:station:wmo:42858:1,2023-11-02T04:08:00Z,28.1843,-88.4742,28.8,26.1,11111222
BP,ioos:station:wmo:42858:1,2023-11-02T04:18:00Z,28.1843,-88.4742,28.8,26.1,11111222
BP,ioos:station:wmo:42858:1,2023-11-02T04:28:00Z,28.1843,-88.4742,28.8,26.1,11111222
BP,ioos:station:wmo:42858:1,2023-11-02T04:38:00Z,28.1843,-88.4742,28.8,26.1,11111222
BP,ioos:station:wmo:42858:1,2023-11-02T04:48:00Z,28.1843,-88.4742,28.8,26.1,11111222
BP,ioos:station:wmo:42858:1,2023-11-02T04:58:00Z,28.1843,-88.4742,28.8,26.1,11111222
BP,ioos:station:wmo:42858:1,2023-11-02T05:08:00Z,28.1843,-88.4742,28.8,26.0,11111222
BP,ioos:station:wmo:42858:1,2023-11-02T05:18:00Z,28.1843,-88.4742,28.9,26.0,11111222
BP,ioos:station:wmo:42858:1,2023-11-02T05:28:00Z,28.1843,-88.4742,28.9,26.0,11111222
BP,ioos:station:wmo:42858:1,2023-11-02T05:38:00Z,28.1843,-88.4742,28.8,26.0,11111222
BP,ioos:station:wmo:42858:1,2023-11-02T05:48:00Z,28.1843,-88.4742,28.9,26.0,11111222
BP,ioos:station:wmo:42858:1,2023-11-02T05:58:00Z,28.1843,-88.4742,28.9,26.0,11111222
BP,ioos:station:wmo:42858:1,2023-11-02T06:08:00Z,28.1843,-88.4742,28.9,26.0,11111222
BP,ioos:station:wmo:42858:1,2023-11-02T06:18:00Z,28.1843,-88.4742,28.9,26.0,11111222
BP,ioos:station:wmo:42858:1,2023-11-02T06:28:00Z,28.1843,-88.4742,28.9,26.0,11111222
BP,ioos:station:wmo:42858:1,2023-11-02T06:38:00Z,28.1843,-88.4742,28.9,26.0,11111222
BP,ioos:station:wmo:42858:1,2023-11-02T06:48:00Z,28.1843,-88.4742,28.9,26.0,11111222
BP,ioos:station:wmo:42858:1,2023-11-02T06:58:00Z,28.1843,-88.4742,28.9,26.0,11111222
BP,ioos:station:wmo:42858:1,2023-11-02T07:08:00Z,28.1843,-88.4742,28.9,26.0,11111222
BP,ioos:station:wmo:42858:1,2023-11-02T07:18:00Z,28.1843,-88.4742,28.9,26.0,11111222
BP,ioos:station:wmo:42858:1,2023-11-02T07:28:00Z,28.1843,-88.4742,28.9,26.0,11111222
BP,ioos:station:wmo:42858:1,2023-11-02T07:38:00Z,28.1843,-88.4742,28.9,26.0,11111222
BP,ioos:station:wmo:42858:1,2023-11-02T07:48:00Z,28.1843,-88.4742,28.9,26.0,11111222
BP,ioos:station:wmo:42858:1,2023-11-02T07:58:00Z,28.1843,-88.4742,28.9,26.0,11111222
BP,ioos:station:wmo:42858:1,2023-11-02T08:08:00Z,28.1843,-88.4742,28.9,26.0,11111222
BP,ioos:station:wmo:42858:1,2023-11-02T08:18:00Z,28.1843,-88.4742,28.9,26.0,11111222
BP,ioos:station:wmo:42858:1,2023-11-02T08:28:00Z,28.1843,-88.4742,28.9,26.0,11111222
BP,ioos:station:wmo:42858:1,2023-11-02T08:38:00Z,28.1843,-88.4742,28.9,26.0,11111222
BP,ioos:station:wmo:42858:1,2023-11-02T08:48:00Z,28.1843,-88.4742,28.9,26.1,11111222
BP,ioos:station:wmo:42858:1,2023-11-02T08:58:00Z,28.1843,-88.4742,28.9,26.1,11111222
BP,ioos:station:wmo:42858:1,2023-11-02T09:08:00Z,28.1843,-88.4742,28.9,26.0,11111222
BP,ioos:station:wmo:42858:1,2023-11-02T09:18:00Z,28.1843,-88.4742,28.9,26.0,11111222
BP,ioos:station:wmo:42858:1,2023-11-02T09:28:00Z,28.1843,-88.4742,29.0,26.0,11111222
BP,ioos:station:wmo:42858:1,2023-11-02T09:38:00Z,28.1843,-88.4742,28.9,26.0,11111222
BP,ioos:station:wmo:42858:1,2023-11-02T09:48:00Z,28.1843,-88.4742,28.9,25.9,11111222
BP,ioos:station:wmo:42858:1,2023-11-02T09:58:00Z,28.1843,-88.4742,28.9,26.0,11111222
BP,ioos:station:wmo:42858:1,2023-11-02T10:08:00Z,28.1843,-88.4742,28.9,26.0,11111222
BP,ioos:station:wmo:42858:1,2023-11-02T10:18:00Z,28.1843,-88.4742,28.9,26.0,11111222
BP,ioos:station:wmo:42858:1,2023-11-02T10:28:00Z,28.1843,-88.4742,28.9,26.0,11111222
BP,ioos:station:wmo:42858:1,2023-11-02T10:38:00Z,28.1843,-88.4742,28.9,26.0,11111222
BP,ioos:station:wmo:42858:1,2023-11-02T10:48:00Z,28.1843,-88.4742,28.9,26.0,11111222
BP,ioos:station:wmo:42858:1,2023-11-02T10:58:00Z,28.1843,-88.4742,28.9,26.0,11111222
BP,ioos:station:wmo:42858:1,2023-11-02T11:08:00Z,28.1843,-88.4742,28.9,26.0,11111222
BP,ioos:station:wmo:42858:1,2023-11-02T11:18:00Z,28.1843,-88.4742,28.9,26.0,11111222
BP,ioos:station:wmo:42858:1,2023-11-02T11:28:00Z,28.1843,-88.4742,28.9,26.0,11111222
BP,ioos:station:wmo:42858:1,2023-11-02T11:38:00Z,28.1843,-88.4742,28.9,26.0,11111222
BP,ioos:station:wmo:42858:1,2023-11-02T11:48:00Z,28.1843,-88.4742,28.9,26.0,11111222
BP,ioos:station:wmo:42858:1,2023-11-02T11:58:00Z,28.1843,-88.4742,28.9,25.9,11111222
BP,ioos:station:wmo:42858:1,2023-11-02T12:08:00Z,28.1843,-88.4742,28.9,25.9,11111222
BP,ioos:station:wmo:42858:1,2023-11-02T12:18:00Z,28.1843,-88.4742,28.9,25.9,11111222
BP,ioos:station:wmo:42858:1,2023-11-02T12:28:00Z,28.1843,-88.4742,28.8,25.8,11111222
BP,ioos:station:wmo:42858:1,2023-11-02T12:38:00Z,28.1843,-88.4742,28.7,25.8,11111222
BP,ioos:station:wmo:42858:1,2023-11-02T12:48:00Z,28.1843,-88.4742,28.7,25.8,11111222
BP,ioos:station:wmo:42858:1,2023-11-02T12:58:00Z,28.1843,-88.4742,28.7,25.8,11111222
BP,ioos:station:wmo:42858:1,2023-11-02T13:08:00Z,28.1843,-88.4742,28.7,25.8,11111222
BP,ioos:station:wmo:42858:1,2023-11-02T13:18:00Z,28.1843,-88.4742,28.7,25.8,11111222
BP,ioos:station:wmo:42858:1,2023-11-02T13:28:00Z,28.1843,-88.4742,28.7,25.8,11111222
BP,ioos:station:wmo:42858:1,2023-11-02T13:38:00Z,28.1843,-88.4742,28.7,25.8,11111222
BP,ioos:station:wmo:42858:1,2023-11-02T13:48:00Z,28.1843,-88.4742,28.7,25.8,11111222
BP,ioos:station:wmo:42858:1,2023-11-02T13:58:00Z,28.1843,-88.4742,28.7,25.8,11111222
BP,ioos:station:wmo:42858:1,2023-11-02T14:08:00Z,28.1843,-88.4742,28.7,25.8,11111222
BP,ioos:station:wmo:42858:1,2023-11-02T14:18:00Z,28.1843,-88.4742,28.7,25.8,11111222
BP,ioos:station:wmo:42858:1,2023-11-02T14:28:00Z,28.1843,-88.4742,28.7,25.8,11111222
BP,ioos:station:wmo:42858:1,2023-11-02T14:38:00Z,28.1843,-88.4742,28.7,25.8,11111222
BP,ioos:station:wmo:42858:1,2023-11-02T14:48:00Z,28.1843,-88.4742,28.7,25.8,11111222
BP,ioos:station:wmo:42858:1,2023-11-02T14:58:00Z,28.1843,-88.4742,28.7,25.8,11111222
BP,ioos:station:wmo:42858:1,2023-11-02T15:08:00Z,28.1843,-88.4742,28.7,25.8,11111222
BP,ioos:station:wmo:42858:1,2023-11-02T15:18:00Z,28.1843,-88.4742,28.8,25.8,11111222
BP,ioos:station:wmo:42858:1,2023-11-02T15:28:00Z,28.1843,-88.4742,28.8,25.8,11111222
BP,ioos:station:wmo:42858:1,2023-11-02T15:38:00Z,28.1843,-88.4742,28.8,25.8,11111222
BP,ioos:station:wmo:42858:1,2023-11-02T15:48:00Z,28.1843,-88.4742,28.8,25.8,11111222
BP,ioos:station:wmo:42858:1,2023-11-02T15:58:00Z,28.1843,-88.4742,28.8,25.8,11111222
BP,ioos:station:wmo:42858:1,2023-11-02T16:08:00Z,28.1843,-88.4742,28.8,25.8,11111222
BP,ioos:station:wmo:42858:1,2023-11-02T16:18:00Z,28.1843,-88.4742,28.8,25.8,11111222
BP,ioos:station:wmo:42858:1,2023-11-02T16:28:00Z,28.1843,-88.4742,28.8,25.8,11111222
BP,ioos:station:wmo:42858:1,2023-11-02T16:38:00Z,28.1843,-88.4742,28.8,25.8,11111222
BP,ioos:station:wmo:42858:1,2023-11-02T16:48:00Z,28.1843,-88.4742,28.8,25.8,11111222
BP,ioos:station:wmo:42858:1,2023-11-02T16:58:00Z,28.1843,-88.4742,28.8,25.8,11111222
BP,ioos:station:wmo:42858:1,2023-11-02T17:08:00Z,28.1843,-88.4742,28.8,25.8,11111222
BP,ioos:station:wmo:42858:1,2023-11-02T17:18:00Z,28.1843,-88.4742,28.8,25.8,11111222
BP,ioos:station:wmo:42858:1,2023-11-02T17:28:00Z,28.1843,-88.4742,28.7,25.8,11111222
BP,ioos:station:wmo:42858:1,2023-11-02T17:38:00Z,28.1843,-88.4742,28.7,25.8,11111222
BP,ioos:station:wmo:42858:1,2023-11-02T17:48:00Z,28.1843,-88.4742,28.7,25.8,11111222
BP,ioos:station:wmo:42858:1,2023-11-02T17:58:00Z,28.1843,-88.4742,28.7,25.8,11111222
BP,ioos:station:wmo:42858:1,2023-11-02T18:08:00Z,28.1843,-88.4742,28.7,25.8,11111222
BP,ioos:station:wmo:42858:1,2023-11-02T18:18:00Z,28.1843,-88.4742,28.8,25.8,11111222
BP,ioos:station:wmo:42858:1,2023-11-02T18:28:00Z,28.1843,-88.4742,28.8,25.8,11111222
BP,ioos:station:wmo:42858:1,2023-11-02T18:38:00Z,28.1843,-88.4742,28.8,25.8,11111222
BP,ioos:station:wmo:42858:1,2023-11-02T18:48:00Z,28.1843,-88.4742,28.8,25.8,11111222
BP,ioos:station:wmo:42858:1,2023-11-02T18:58:00Z,28.1843,-88.4742,28.8,25.8,11111222
BP,ioos:station:wmo:42858:1,2023-11-02T19:08:00Z,28.1843,-88.4742,28.8,25.8,11111222
BP,ioos:station:wmo:42858:1,2023-11-02T19:18:00Z,28.1843,-88.4742,28.8,25.8,11111222
BP,ioos:station:wmo:42858:1,2023-11-02T19:28:00Z,28.1843,-88.4742,28.8,25.8,11111222
BP,ioos:station:wmo:42858:1,2023-11-02T19:38:00Z,28.1843,-88.4742,28.8,25.8,11111222
BP,ioos:station:wmo:42858:1,2023-11-02T19:48:00Z,28.1843,-88.4742,28.8,25.8,11111222
BP,ioos:station:wmo:42858:1,2023-11-02T19:58:00Z,28.1843,-88.4742,28.8,25.8,11111222
BP,ioos:station:wmo:42858:1,2023-11-02T20:08:00Z,28.1843,-88.4742,28.8,25.8,11111222
BP,ioos:station:wmo:42858:1,2023-11-02T20:18:00Z,28.1843,-88.4742,28.8,25.8,11111222
BP,ioos:station:wmo:42858:1,2023-11-02T20:28:00Z,28.1843,-88.4742,28.8,25.8,11111222
BP,ioos:station:wmo:42858:1,2023-11-02T20:38:00Z,28.1843,-88.4742,28.9,25.8,11111222
BP,ioos:station:wmo:42858:1,2023-11-02T20:48:00Z,28.1843,-88.4742,28.8,25.8,11111222
BP,ioos:station:wmo:42858:1,2023-11-02T20:58:00Z,28.1843,-88.4742,28.8,25.8,11111222
BP,ioos:station:wmo:42858:1,2023-11-02T21:08:00Z,28.1843,-88.4742,28.8,25.8,11111222
BP,ioos:station:wmo:42858:1,2023-11-02T21:18:00Z,28.1843,-88.4742,28.7,25.8,11111222
BP,ioos:station:wmo:42858:1,2023-11-02T21:28:00Z,28.1843,-88.4742,28.7,25.8,11111222
BP,ioos:station:wmo:42858:1,2023-11-02T21:38:00Z,28.1843,-88.4742,28.7,25.8,11111222
BP,ioos:station:wmo:42858:1,2023-11-02T21:48:00Z,28.1843,-88.4742,28.7,25.8,11111222
BP,ioos:station:wmo:42858:1,2023-11-02T21:58:00Z,28.1843,-88.4742,28.7,25.8,11111222
BP,ioos:station:wmo:42858:1,2023-11-02T22:08:00Z,28.1843,-88.4742,28.7,25.8,11111222
BP,ioos:station:wmo:42858:1,2023-11-02T22:18:00Z,28.1843,-88.4742,28.7,25.8,11111222
BP,ioos:station:wmo:42858:1,2023-11-02T22:28:00Z,28.1843,-88.4742,28.6,25.8,11111222